Location: Albany
(35.0000°S, 118.0000°E)
Time: 23:57:22
(UTC-04:00)

Cosmos 1933 - Visible Passes

Search period start: 24 April 2014 00:00
Search period end: 04 May 2014 00:00
Orbit: 558 x 573 km, 82.5° (Epoch: 24 April)

Date Brightness Start Highest point End Pass type
(mag) Time Alt. Az. Time Alt. Az. Time Alt. Az.
24 Apr 6.3 07:14:44 10° SW 07:17:38 19° W 07:20:31 10° NW visible
24 Apr 6.7 17:58:06 10° ENE 18:00:26 15° E 18:02:48 10° SE visible
25 Apr 6.7 07:15:48 10° SW 07:18:08 15° W 07:20:28 10° WNW visible
25 Apr 6.5 17:58:03 10° NE 18:00:57 19° E 18:03:51 10° SE visible
26 Apr 6.9 07:17:10 10° WSW 07:18:38 12° W 07:20:05 10° WNW visible
26 Apr 6.2 17:58:11 10° NE 18:01:27 24° E 18:04:45 10° SE visible
27 Apr 5.7 17:58:24 10° NNE 18:01:58 30° E 18:05:34 10° SSE visible
28 Apr 5.1 17:58:43 10° NNE 18:02:29 38° E 18:06:19 10° SSE visible
29 Apr 4.5 17:59:05 10° NNE 18:03:01 49° E 18:07:00 10° SSE visible
30 Apr 3.9 17:59:31 10° N 18:03:33 63° E 18:07:38 10° SSE visible
01 May 3.5 18:00:01 10° N 18:04:05 82° E 18:08:13 10° S visible
02 May 3.3 18:00:33 10° N 18:04:38 77° W 18:08:46 10° S visible
03 May 3.4 18:01:09 10° NNW 18:05:11 60° W 18:09:16 10° S visible
